Voltar ao catálogo

ATS 5

AtivoComunicaçõesGEO
NORAD 4068·PAYLOAD·🇺🇸 United States

Lançado Aug 12, 1969 de Cape Canaveral Space Force Station

Loading…

TLE

AtualizadoSource: Space-Track

Época: Sep 14, 2026, 13:17 UTC

1 04068U 69069A   26257.55347747  .00000028  00000-0  00000-0 0  9992
2 04068   0.4054 119.9548 0005824 152.0529 171.3801  0.99488126 47215

Acompanhe ATS 5 em tempo real com AllMySat

Download on the App Store